Regional Weather Roundup
Issued by NWS Pendleton, OR

Home | Current Version | Previous Version | Text Only | Print | Product List | Glossary On
Versions: 1 2 3 4 5 6 7 8 9 10 11 12 13 14 15 16 17 18 19 20 21 22 23 24 25 26 27 28 29 30 31 32 33 34 35 36 37 38 39 40 41 42 43 44 45 46 47 48 49 50
000
ASUS46 KPDT 211825
RWRPDT
PENDLETON REGIONAL WEATHER ROUNDUP
NATIONAL WEATHER SERVICE PENDLETON OREGON
1100 AM PDT THU AUG 21 2014

NOTE: FAIR INDICATES FEW OR NO CLOUDS BELOW 12,000 FEET WITH NO
SIGNIFICANT WEATHER AND/OR OBSTRUCTIONS TO VISIBILITY.

# INDICATES UNOFFICIAL STATION AND DATA

WAZ520-211910-
EAST SLOPES OF WASHINGTON CASCADES

CITY            SKY/WX      TMP DP  RH  WIND    PRES   REMARKS
#CLE ELUM HS    N/A         68  50  53  SW7     29.90F
#CLE ELUM 2NW   N/A         68  46  45  SW2     N/A
#CLE ELUM LAKE  N/A         67  45  45  CALM    29.88S
#CLIFFDEL 2NW   N/A         62  49  62  W2      N/A
#GLENWOOD       N/A         64  51  63  S1      29.94F
#MANASTASH CYN  N/A         66  49  54  E2      29.95S
#NELSON         N/A         66  53  63  CALM    29.90F
#NELSON 3SW     N/A         64  52  65  CALM    30.09S
#NILE           N/A         69  49  49  W2      29.17F
#RONALD 2NW     N/A         64  48  56  SW1     29.85F
#TEANAWAY 4NE   N/A         69  55  61  CALM    N/A
#TROUT LAKE 1NE N/A         63  49  60  E6      29.94F
$$

WAZ521-211910-
SIMCOE HIGHLANDS

CITY            SKY/WX      TMP DP  RH  WIND    PRES   REMARKS
#CENTERVILLE 4W N/A         67  41  39  W14     29.74F
#CENTERVILLE 1SWN/A         66  41  40  W12     29.90F
#GOLDENDALE     N/A         65  48  54  W8      N/A
#GOLDENDALE 1NE N/A         65  43  45  SW5     N/A
#GOLDENDALE 1S  N/A         66  49  54  W2      29.95F
#GOODNOE HILLS  N/A         71  46  41  W15     29.90F
#LYLE 6NE       N/A         65  43  45  S5      29.92S
$$

WAZ026-211910-
KITTITAS VALLEY

CITY            SKY/WX      TMP DP  RH  WIND    PRES   REMARKS
ELLENSBURG AP   SUNNY       75  47  37  W5      29.95F
6HR MIN TEMP:   56; 6HR MAX TEMP:   75;

#ELLENSBURG CWU N/A         73  47  40  N3      29.85F
#ELLENSBURG 3NE N/A         68  52  57  E1      29.95F
#ELLENSBURG     N/A         78  52  40  E3      N/A
#KITTITAS 3S    N/A         67  54  63  W2      29.87F
#THORP 6N       N/A         66  49  54  N7      29.91S
$$

WAZ027-211910-
YAKIMA VALLEY

CITY            SKY/WX      TMP DP  RH  WIND    PRES   REMARKS
SUNNYSIDE AP    SUNNY       70  50  49  CALM    29.94S
YAKIMA AIRPORT  PTCLDY      76  46  34  CALM    29.93F
6HR MIN TEMP:   49; 6HR MAX TEMP:   76;

YAKIMA-VAGABOND PTCLDY      74  47  38  N5      29.95S
#COWICHE 1N     N/A         69  51  53  CALM    30.11F
#DONALD 2NE     N/A         83  41  23  N1      30.26S
#GRANDVIEW      N/A         73  49  43  SE1     29.91F
#MABTON         N/A         71  50  47  N1      29.92F
#MOXEE 2E       N/A         75  29  18  SW1     29.86F
#NACHES 2SW     N/A         73  52  48  E1      29.96S
#OUTLOOK DOT    N/A         N/A N/A N/A S1      N/A
#SELAH 8E       N/A         76  47  36  N3      N/A
#TERRACE HTS    N/A         73  50  44  CALM    29.85S
#TOPPENISH      N/A         72  52  49  CALM    29.82F
#WAPATO 4NE     N/A         83  41  23  N1      30.26S
#W YAKIMA       N/A         73  47  40  E3      29.88F
#WHITE SWAN 5E  N/A         71  49  46  NE1     29.90F
#WILEY CITY 3W  N/A         71  47  42  CALM    29.95R
$$

WAZ028-211910-
LOWER COLUMBIA BASIN...WASHINGTON

CITY            SKY/WX      TMP DP  RH  WIND    PRES   REMARKS
HANFORD         PTCLDY      76  46  34  E2      29.91F
PASCO           SUNNY       76  50  40  S10     29.94S
6HR MIN TEMP:   58; 6HR MAX TEMP:   76;

PROSSER AWOS    N/A         73  52  48  E8      29.95F
RICHLAND AWOS   SUNNY       77  45  32  SW7     29.93F
#BASIN CITY 5SW N/A         74  57  55  CALM    29.93F
#BENTON CITY    N/A         73  51  46  S3      29.81F
#CONNELL 5N     N/A         73  50  44  SW5     29.89F
#CONNELL 5NW    N/A         72  50  46  S5      29.87S
#ELTOPIA        N/A         76  54  46  S5      29.88S
#ELTOPIA 6NW    N/A         70  54  57  SE7     28.91F
#KENNEWICK 3S   N/A         72  52  49  S6      29.92S
#PATERSON       N/A         69  51  53  SW8     29.91F
#PROSSER        N/A         73  47  40  S7      29.90F
#SAGEMOOR 2W    N/A         72  55  55  SE1     29.77F
#TOUCHET 2S     N/A         77  46  33  SW7     29.90S
#WEST PASCO     N/A         76  57  52  NE2     29.90F
$$

WAZ029-211910-
FOOTHILLS OF THE BLUES...WASHINGTON

CITY            SKY/WX      TMP DP  RH  WIND    PRES   REMARKS
WALLA WALLA AP  PTCLDY      72  44  37  S8      29.98F
6HR MIN TEMP:   60; 6HR MAX TEMP:   73;

#COLLEGE PLACE  N/A         77  42  29  W3      29.95F
#DAYTON SCHOOL  N/A         71  42  35  W2      29.96S
#LOWDEN 2SE     N/A         76  48  37  SW5     29.91F
#PLEASANT VIEW 1N/A         73  45  37  S9      29.94F
#PRESCOTT       N/A         74  49  41  SW2     29.91F
#SUDBURY        N/A         75  N/A N/A W7      N/A
#WHITMAN COLLEGEN/A         71  47  42  S1      29.97F
#WAITSBURG 8N   N/A         72  32  23  S10     29.91S
#WALLA WALLA 5E N/A         98  49  19  CALM    N/A    HX 95
#WHITMAN MISSIONN/A         73  49  43  CALM    29.93F
$$

WAZ030-211910-
BLUE MOUNTAINS...WASHINGTON

CITY            SKY/WX      TMP DP  RH  WIND    PRES   REMARKS
$$

ORZ009-041-WAZ024-211910-
COLUMBIA RIVER GORGE

CITY            SKY/WX      TMP DP  RH  WIND    PRES   REMARKS
HOOD RIVER AP   MOCLDY      66  48  52  NW6     30.00S
THE DALLES AP   MOCLDY      72  44  37  N14     29.96F
6HR MIN TEMP:   60; 6HR MAX TEMP:   72;

#ARLINGTON AIRPON/A         71  44  38  W16     N/A
#ARLINGTON HS   N/A         74  40  29  CALM    29.83F
#MARYHILL 2W    N/A         70  39  32  SW10    N/A
#MOSIER 1S      N/A         67  37  33  W3      30.03S
#MURDOCK        N/A         69  49  49  W16     29.97F
#RUFUS DOT      N/A         73  48  41  W7      N/A

$$

ORZ510-211910-
NORTH CENTRAL OREGON

CITY            SKY/WX      TMP DP  RH  WIND    PRES   REMARKS
#CHENOWITH 1W   N/A         62  43  50  W16     N/A
#COW CYN RST AREN/A         65  34  31  S6      N/A
#DUFUR 9E       N/A         64  34  33  W1      29.98S
#GRASS VALLEY   N/A         66  33  29  S1      N/A
#GRASS VALLEY 1SN/A         69  38  32  W6      29.95F
#KENT DOT       N/A         68  34  28  SW10    N/A
#MAUPIN SCHOOL  N/A         72  41  33  W3      28.85F
#MORO SCHOOL    N/A         69  46  44  SW2     30.00F
#SHANIKO 5WSW   N/A         63  31  30  SW9     N/A
#SHANIKO 4NW    N/A         62  31  31  SW12    30.04S
#TYGH VALLEY 2NEN/A         68  45  44  CALM    29.95F
#WAPANITIA AIRPON/A         68  36  31  NW3     29.95S
#WASCO DOT      N/A         69  46  44  W6      N/A
#WASCO 5NE      N/A         68  41  37  W10     29.93F
$$

ORZ511-211910-
CENTRAL OREGON

CITY            SKY/WX      TMP DP  RH  WIND    PRES   REMARKS
BEND AIRPORT    SUNNY       66  32  28  CALM    30.06F
MADRAS AIRPORT  PTCLDY      68  37  32  SW6     30.04F
REDMOND AIRPORT PTCLDY      67  35  30  CALM    30.04F
6HR MIN TEMP:   42; 6HR MAX TEMP:   68;

#BEND 6E        N/A         68  31  25  CALM    29.88F
#BEND 1SW       N/A         66  41  40  SW2     N/A
#BEND-AWBREY    N/A         66  36  33  N3      29.93S
#BEND-KIM LN    N/A         67  49  52  SW1     30.03S
#CROOKED RVR RANN/A         70  44  39  CALM    29.94F
#CULVER         N/A         69  38  32  S3      29.99F
#LAKE BILLY CHINN/A         66  -3   6  N2      30.06F
#POWELL BUTTE 3EN/A         64  42  45  N2      N/A
#POWELL BUTTE   N/A         70  46  42  N3      29.69S
#PRINEVILLE 3N  N/A         66  42  42  CALM    29.92F


ORZ509-211910-
EAST SLOPES OF OREGON CASCADES

CITY            SKY/WX      TMP DP  RH  WIND    PRES   REMARKS
#BLUE BOX PASS  N/A         59   6  12  SW1     N/A
#BLACK BUTTE RNCN/A         67  34  29  S1      29.96S
#CAMP SHERMAN   N/A         74  41  30  CALM    29.93F
#LA PINE DOT    N/A         68  25  20  SE1     N/A
#LA PINE 4NW    N/A         62  42  48  CALM    30.01F
#LAVA BUTTE DOT N/A         66  36  33  S1      N/A
#SISTERS AIRPOR N/A         66  43  43  CALM    30.02F
#SISTERS ODOT   N/A         68  N/A N/A NW2     N/A
#SISTERS 3N     N/A         66  39  37  N2      N/A
#SUNRIVER       N/A         62  43  50  S2      29.85F
#SUTTLE LK DOT  N/A         61  39  44  W7      N/A
#TUMALO 3W      N/A         68  34  28  E3      29.83F
#WANOGA BUTTE D N/A         59  25  27  W5      N/A

$$

ORZ044-211910-
LOWER COLUMBIA BASIN...OREGON

CITY            SKY/WX      TMP DP  RH  WIND    PRES   REMARKS
HERMISTON       SUNNY       75  40  28  W13     29.95F
6HR MIN TEMP:   61; 6HR MAX TEMP:   75;

#BOARDMAN SCHOOLN/A         71  47  42  W5      29.92F
#BOARDMAN 3W    N/A         77  53  43  W12     29.62F
#BOARDMAN 8SW   N/A         72  47  41  SW14    29.92S
#ECHO 8SW       N/A         74  40  29  W8      29.93S
#IONE SCHOOL    N/A         72  37  28  W8      29.95S
#IRRIGON 4NW    N/A         72  51  48  SW10    N/A
#UMATILLA SCHOOLN/A         74  57  55  W5      29.98R
#UMATILLA       N/A         74  45  35  SW7     29.92F
$$

ORZ507-211910-
NORTHERN FOOTHILLS OF THE BLUES

CITY            SKY/WX      TMP DP  RH  WIND    PRES   REMARKS
PENDLETON AIRPT PTCLDY      73  38  28  VRB7    29.97F
6HR MIN TEMP:   52; 6HR MAX TEMP:   73;

#ADAMS 3WNW     N/A         71  43  36  W6      29.92F
#ATHENA         N/A         70  45  41  CALM    29.94F
#HELIX SCHOOL   N/A         68  43  40  W2      29.91F
#HELIX 3N       N/A         68  42  39  SW13    29.95F
#HOLDMAN 5SE    N/A         70  43  38  SW5     29.98S
#HOLDMAN 6E     N/A         70  41  35  NE7     29.75S
#M-F GROVE ELEM N/A         72  41  33  CALM    29.95F
#M-FREEWATER 5SEN/A         71  48  44  W3      29.96F
#PDT AQUATIC CTRN/A         70  45  41  SW3     29.93F
#PENDLETON DNTN N/A         75  44  33  CALM    29.92S
#PDT SUNRIDGE   N/A         74  45  35  N1      29.97F
#PENDLETON 7NW  N/A         73  47  40  CALM    27.44S
#PILOT ROCK     N/A         73  42  33  CALM    29.99F
#TUTUILLA       N/A         74  48  40  W2      29.86F
#UMAPINE 2E     N/A         75  50  41  W1      29.92F
#WESTON SCHOOL  N/A         68  41  37  N6      29.94F

$$

ORZ508-211910-
SOUTHERN FOOTHILLS OF THE BLUES

CITY            SKY/WX      TMP DP  RH  WIND    PRES   REMARKS
LEXINGTON       SUNNY       75  32  21  SW13    29.98F
#CONDON SCHOOL  N/A         65  38  37  SW7     29.98S
#CONDON 5W      N/A         63  33  32  SW12    30.00S
#FOSSIL SCHOOL  N/A         68  33  27  W3      29.99S
#HEPPNER 4NE    N/A         68  34  28  W8      29.91F
#LEXINGTON 2SE  N/A         76  38  25  W12     29.94S
#MIKKALO        N/A         72  31  22  W12     29.98S
#OLEX 4N        N/A         70  36  29  W2      29.95F
#RUGGS 5NE      N/A         71  32  24  W8      30.17S
#RUGGS 2SW      N/A         71  32  24  W7      29.96F

$$

ORZ502-503-211910-
BLUE MOUNTAINS

CITY            SKY/WX      TMP DP  RH  WIND    PRES   REMARKS
MEACHAM         PTCLDY      66  40  38  CALM    30.04S
6HR MIN TEMP:   35; 6HR MAX TEMP:   66;

#BATTLE MTN DOT N/A         62  49  62  SW1     N/A
#HEPPNER 15SE   N/A         65  42  43  NW2     29.96R
#LADD CYN SMT   N/A         66  37  34  NW7     N/A
#LADD CREEK ODOTN/A         65  45  48  NE3     N/A
#LONG CREEK HS  N/A         64  43  46  CALM    N/A
#N POWDER DOT   N/A         70  46  42  CALM    N/A
#PIKES PEAK     N/A         60  43  53  SW14    27.99S
#TOLLGATE       N/A         57  45  64  S5      30.00S
#UKIAH          N/A         67  44  43  CALM    29.98F
#WESTON 4E      N/A         64  43  46  S2      29.87S
$$

ORZ505-211910-
JOHN DAY BASIN

CITY            SKY/WX      TMP DP  RH  WIND    PRES   REMARKS
JOHN DAY        PTCLDY      68  39  35  CALM    30.05S
#JOHN DAY KJDY  N/A         70  34  26  CALM    30.37R
#DAYVILLE SCHOOLN/A         67  38  34  CALM    29.99F
#MONUMENT HS    N/A         68  39  35  SE1     30.02F
#MT. VERNON 5SE N/A         62  39  43  E1      30.01S
#WINLOCK        N/A         72  39  30  N2      30.11F
$$

ORZ506-211910-
OCHOCO AND JOHN DAY HIGHLANDS

CITY            SKY/WX      TMP DP  RH  WIND    PRES   REMARKS
#BUCK CREEK DOT N/A         68  40  36  SW7     N/A
#HORSE RIDGE DO N/A         67  12  12  W3      N/A
#KEYES SMT DOT  N/A         65  30  27  CALM    N/A
#PAULINA SCHOOL N/A         65  34  31  CALM    30.06F
#PINE MTN OBS   N/A         59   6  12  NW1     N/A
#PRAIRIE CITY   N/A         67  41  39  CALM    29.94F
#SENECA 9NW     N/A         63  35  35  CALM    29.91S
$$

ORZ049-211910-
GRANDE RONDE VALLEY

CITY            SKY/WX      TMP DP  RH  WIND    PRES   REMARKS
LA GRANDE       PTCLDY      72  39  30  W5      29.99F
#COVE           N/A         66  47  50  S1      29.93F
#COVE SCHOOL    N/A         69  44  40  CALM    29.99F
#COVE 6NW       N/A         66  43  43  CALM    29.97F
#ELGIN 3N       N/A         71  43  36  S3      29.73F
#ELGIN 1E       N/A         67  44  43  CALM    N/A
#IMBLER SCHOOL  N/A         66  44  45  E1      29.97F
#ISLAND CITY 4N N/A         74  47  38  CALM    29.86F
#LADD CYN DOT   N/A         68  45  44  NE1     N/A
#LA GRANDE ELEM N/A         71  42  35  W2      29.97F
#UNION 1S       N/A         67  43  42  NW3     29.83F
$$

ORZ050-211910-
WALLOWA COUNTY

CITY            SKY/WX      TMP DP  RH  WIND    PRES   REMARKS
JOSEPH AIRPORT  PTCLDY      70  39  32  CALM    30.04S
#ENTERPRISE AP  N/A         68  36  31  S3      29.96F
#ENTERPRISE HS  N/A         68  43  40  CALM    30.03F
#IMNAHA SCHOOL  N/A         75  37  25  CALM    29.87F
#IMNAHA 10S     N/A         75  41  29  NE5     29.97F
#JOSEPH 3N      N/A         66  42  42  CALM    30.04F
#JOSEPH 3W      N/A         66  40  38  CALM    29.89F
#MT HOWARD 8000 N/A         51  38  61  N1      30.20R
#PROMISE 1S     N/A         65  44  46  W3      30.01F
#SHEEP RDG 7000 N/A         51  38  61  CALM    29.91S
#WALLOWA SCHOOL N/A         64  41  43  CALM    30.82F



$$



USA.gov is the U.S. government's official web portal to all federal, state and local government web resources and services.